ESSA 7

operational
NORAD ID: 3345 Int'l Des: 1968-069 Owner: ESSA Country: US
LEOCIRCULARRETROGRADESSO

ESSA 7について

説明を読み込み中...

リアルタイム位置

3D地球を読み込み中...

次回通過

高度履歴

Altitude vs Time

uPlot chart will show altitude changes over time

軌道要素

1 03345U 68069A 26063.45337139 -.00000054 00000-0 -66693-4 0 9991
2 03345 101.5479 32.5807 0026862 13.5210 104.8419 12.53008941631869
Epoch: Mar 4, 2026 • Age: 23 hours

現在のステータス

高度 1471.3 km
速度 7.12 km/s
衛星直下点 23.67°N, 76.82°E
タイプ other

大規模コンステレーション

Loading constellations...